Location: Most
(50.5133°N, 13.6207°E)
Time: 01:23:37
(UTC+02:00)

Nauka - Pass Details

Date: 20 September 2021
Orbit: 418 x 423 km, 51.6° (Epoch: 18 October)

Event Time Altitude Azimuth Distance (km) Brightness Sun altitude
Rises 20:47:03 0° 247° (WSW) 2,359 ? -16.2°
Reaches altitude 10° 20:49:09 10° 246° (WSW) 1,498 ? -16.5°
Maximum altitude 20:52:30 73° 161° (SSE) 442 ? -17.0°
Enters shadow 20:53:18 48° 91° (E) 558 ? -17.1°
